DW8338 Sevilla ES current weather conditions

sailwx.info

Wind from 025

Air temperature 14.4° C
Dewpoint 8.8° C

Last reported at 2019-Oct-17 07:58 UTC.
Time now 2019-Oct-17 09:12 UTC

Location: N 37°23' W 006°01'.
View on Google Maps.

See reports from other nearby stations

  
Tides and Currents Weather Stations Pressure Air Temp Water Temp Dewpoint Dewpoint Depression Visibility Wind Speed Wind Dir Waves Ship Positions
date/time (UTC)wind fromknots sea level pressurealtimeterstation pressurevisibilityair tempwater tempwave heightnotes
2019-Oct-17 07:58 025 14.4
2019-Oct-17 07:49 020 13.3
2019-Oct-17 07:40 009 1 gusting 2 12.8
2019-Oct-17 07:31 329 2 gusting 4 12.2
2019-Oct-17 07:22 341 1 gusting 5 12.8
2019-Oct-17 07:13 347 1 gusting 4 12.2
2019-Oct-17 07:04 336 0 gusting 4 12.2
2019-Oct-17 06:55 346 0 gusting 1 12.8
2019-Oct-17 06:46 355 1 gusting 3 12.2
2019-Oct-17 06:37 002 1 gusting 3 12.2
2019-Oct-17 06:28 336 0 gusting 4 12.2
2019-Oct-17 06:19 315 12.2
2019-Oct-17 06:10 272 12.2
2019-Oct-17 06:01 272 0 gusting 0 12.2
2019-Oct-17 05:52 272 0 gusting 1 12.2
2019-Oct-17 05:43 272 0 gusting 2 12.8
2019-Oct-17 05:34 336 0 gusting 2 13.3
2019-Oct-17 05:25 006 1 gusting 3 13.3
2019-Oct-17 05:16 008 2 gusting 5 13.3
2019-Oct-17 05:07 018 0 gusting 5 13.3
2019-Oct-17 04:58 002 0 gusting 2 13.3
2019-Oct-17 04:49 001 0 gusting 3 13.3
2019-Oct-17 04:40 346 13.3
2019-Oct-17 04:31 13.3
2019-Oct-17 04:22 13.3
2019-Oct-17 04:13 13.3
2019-Oct-17 04:04 13.3
2019-Oct-17 03:55 13.3
2019-Oct-17 03:46 186 13.9
2019-Oct-17 03:37 13.9
2019-Oct-17 03:28 13.9
2019-Oct-17 03:19 13.9
2019-Oct-17 03:10 13.9
2019-Oct-17 03:01 13.9
2019-Oct-17 02:52 186 13.9
2019-Oct-17 02:43 13.9
2019-Oct-17 02:34 186 13.9
2019-Oct-17 02:25 186 0 gusting 2 13.9
2019-Oct-17 02:16 184 0 gusting 2 14.4
2019-Oct-17 02:07 183 14.4
2019-Oct-17 01:58 183 14.4
2019-Oct-17 01:49 183 14.4
2019-Oct-17 01:40 183 1 gusting 2 14.4
2019-Oct-17 01:31 183 1 gusting 4 14.4
2019-Oct-17 01:22 173 2 gusting 5 14.4
2019-Oct-17 01:13 173 2 gusting 5 14.4
2019-Oct-17 01:04 179 4 gusting 6 14.4
2019-Oct-17 00:55 176 3 gusting 8 15.0
2019-Oct-17 00:46 178 3 gusting 6 15.6
2019-Oct-17 00:37 182 2 gusting 6 16.7
2019-Oct-17 00:28 191 0 gusting 6 17.2
2019-Oct-17 00:19 346 17.8
2019-Oct-17 00:10 17.2
2019-Oct-17 00:01 17.8
2019-Oct-16 23:52 17.8
2019-Oct-16 23:43 18.3
2019-Oct-16 23:34 348 18.3
2019-Oct-16 23:25 353 18.3
2019-Oct-16 23:16 354 0 gusting 2 18.3
2019-Oct-16 23:07 350 0 gusting 3 18.3
2019-Oct-16 22:58 345 0 gusting 2 18.9
2019-Oct-16 22:49 336 18.9
2019-Oct-16 22:40 291 18.9
2019-Oct-16 22:31 278 1 gusting 3 18.9
2019-Oct-16 22:22 292 3 gusting 6 19.4
2019-Oct-16 22:13 286 3 gusting 7 19.4
2019-Oct-16 22:04 297 2 gusting 7 19.4
2019-Oct-16 21:55 288 3 gusting 7 19.4
2019-Oct-16 21:46 287 4 gusting 7 19.4
2019-Oct-16 21:37 292 3 gusting 9 19.4
2019-Oct-16 21:28 296 2 gusting 8 18.9
2019-Oct-16 21:19 296 2 gusting 7 18.9
2019-Oct-16 21:10 316 1 gusting 6 18.9
2019-Oct-16 21:01 332 2 gusting 7 19.4
2019-Oct-16 20:52 279 2 gusting 7 19.4
2019-Oct-16 20:43 261 3 gusting 8 19.4
2019-Oct-16 20:34 255 4 gusting 8 19.4
2019-Oct-16 20:25 255 4 gusting 11 19.4
2019-Oct-16 20:16 255 4 gusting 6 19.4
2019-Oct-16 20:07 255 3 gusting 8 20.0
2019-Oct-16 19:58 255 2 gusting 6 20.0
2019-Oct-16 19:49 266 3 gusting 6 20.0
2019-Oct-16 19:40 265 3 gusting 6 20.0
2019-Oct-16 19:31 258 3 gusting 7 20.6
2019-Oct-16 19:22 255 3 gusting 6 20.6
2019-Oct-16 19:13 256 4 gusting 7 20.6
2019-Oct-16 19:04 258 4 gusting 9 21.1
2019-Oct-16 18:55 256 4 gusting 7 21.1
2019-Oct-16 18:46 256 4 gusting 8 21.7
2019-Oct-16 18:37 248 2 gusting 6 21.7
2019-Oct-16 18:28 222 2 gusting 4 22.2
2019-Oct-16 18:19 210 2 gusting 5 22.2
2019-Oct-16 18:10 209 1 gusting 5 22.2
2019-Oct-16 18:01 204 2 gusting 4 22.8
2019-Oct-16 17:52 197 2 gusting 5 22.8
2019-Oct-16 17:43 192 2 gusting 5 22.8
2019-Oct-16 17:34 190 3 gusting 5 23.3
2019-Oct-16 17:25 190 2 gusting 6 23.3
2019-Oct-16 17:16 183 2 gusting 4 23.9
2019-Oct-16 17:07 175 3 gusting 6 23.9
2019-Oct-16 16:58 205 0 gusting 6 24.4
2019-Oct-16 16:49 252 0 gusting 3 24.4
2019-Oct-16 16:40 178 1 gusting 2 24.4
2019-Oct-16 16:31 147 1 gusting 3 24.4
2019-Oct-16 16:22 130 0 gusting 6 23.9
2019-Oct-16 16:13 033 1 gusting 2 24.4
2019-Oct-16 16:04 023 1 gusting 5 23.9
2019-Oct-16 15:55 176 0 gusting 3 23.9
2019-Oct-16 15:46 211 1 gusting 4 23.9
2019-Oct-16 15:37 191 1 gusting 4 24.4
2019-Oct-16 15:28 192 1 gusting 4 24.4
2019-Oct-16 15:19 196 0 gusting 5 24.4
2019-Oct-16 15:10 302 1 gusting 4 23.9
2019-Oct-16 15:01 295 24.4
2019-Oct-16 14:52 030 24.4
2019-Oct-16 14:43 053 23.9
2019-Oct-16 14:34 332 23.9
2019-Oct-16 14:25 322 0 gusting 1 23.3
2019-Oct-16 14:16 110 0 gusting 4 23.3
2019-Oct-16 14:07 075 0 gusting 3 22.8
2019-Oct-16 13:58 121 2 gusting 4 22.8
2019-Oct-16 13:49 092 1 gusting 6 22.8
2019-Oct-16 13:40 050 1 gusting 6 23.3
2019-Oct-16 13:31 285 1 gusting 5 22.8
2019-Oct-16 13:22 285 0 gusting 2 23.3
2019-Oct-16 13:13 095 1 gusting 4 22.8
2019-Oct-16 13:04 106 2 gusting 4 22.2
2019-Oct-16 12:55 043 2 gusting 4 22.2
2019-Oct-16 12:46 021 1 gusting 6 22.2
2019-Oct-16 12:37 057 0 gusting 3 22.2
2019-Oct-16 12:28 116 1 gusting 5 21.7
2019-Oct-16 12:19 181 0 gusting 2 22.2
2019-Oct-16 12:10 046 0 gusting 6 21.7
2019-Oct-16 12:01 103 1 gusting 4 21.7
2019-Oct-16 11:52 080 0 gusting 4 21.1
2019-Oct-16 11:43 037 1 gusting 4 21.1
2019-Oct-16 11:34 357 1 gusting 5 20.6
2019-Oct-16 11:25 025 1 gusting 6 20.0
2019-Oct-16 11:16 043 1 gusting 5 20.0
2019-Oct-16 11:07 052 1 gusting 5 20.0
2019-Oct-16 10:58 007 3 gusting 6 19.4
2019-Oct-16 10:49 016 3 gusting 6 19.4
2019-Oct-16 10:40 019 3 gusting 6 18.9
2019-Oct-16 10:31 046 2 gusting 7 18.9
2019-Oct-16 10:22 021 2 gusting 6 18.3
2019-Oct-16 10:13 062 3 gusting 6 18.3
2019-Oct-16 10:04 045 3 gusting 8 17.8
2019-Oct-16 09:55 049 3 gusting 8 17.8
2019-Oct-16 09:46 049 2 gusting 6 17.2
2019-Oct-16 09:37 042 3 gusting 6 16.7
2019-Oct-16 09:28 038 4 gusting 7 16.7
2019-Oct-16 09:19 041 2 gusting 6 16.7
2019-Oct-16 09:10 024 2 gusting 6 16.1
2019-Oct-16 09:01 017 3 gusting 6 15.6
2019-Oct-16 08:52 009 3 gusting 7 15.6
2019-Oct-16 08:43 009 3 gusting 6 14.4
2019-Oct-16 08:34 010 3 gusting 6 14.4
2019-Oct-16 08:25 014 1 gusting 5 14.4
2019-Oct-16 08:16 016 2 gusting 5 13.9
2019-Oct-16 08:07 016 2 gusting 6 13.3
2019-Oct-16 07:58 013 2 gusting 6 13.3
2019-Oct-16 07:49 016 3 gusting 6 13.3
2019-Oct-16 07:40 011 3 gusting 6 13.3
2019-Oct-16 07:31 006 3 gusting 6 12.8
2019-Oct-16 07:22 358 2 gusting 6 12.8
2019-Oct-16 07:13 355 1 gusting 5 12.8
2019-Oct-16 07:04 358 1 gusting 3 12.2
2019-Oct-16 06:55 354 2 gusting 4 12.2
2019-Oct-16 06:46 006 2 gusting 5 12.2
2019-Oct-16 06:37 347 2 gusting 4 12.2
2019-Oct-16 06:28 356 2 gusting 5 12.2
2019-Oct-16 06:19 007 2 gusting 5 12.2
2019-Oct-16 06:10 008 2 gusting 6 12.2
2019-Oct-16 06:01 002 2 gusting 5 12.2
2019-Oct-16 05:52 356 1 gusting 5 12.2
2019-Oct-16 05:43 350 2 gusting 3 12.2
2019-Oct-16 05:34 340 2 gusting 4 12.2
2019-Oct-16 05:25 347 1 gusting 4 12.8
2019-Oct-16 05:16 356 1 gusting 3 12.8
2019-Oct-16 05:07 342 1 gusting 3 12.8
2019-Oct-16 04:58 352 1 gusting 4 12.8
2019-Oct-16 04:49 007 2 gusting 4 12.8
2019-Oct-16 04:40 355 2 gusting 4 12.8
2019-Oct-16 04:31 341 1 gusting 5 12.8
2019-Oct-16 04:22 006 1 gusting 5 13.3
2019-Oct-16 04:13 351 1 gusting 3 12.8
2019-Oct-16 04:04 346 1 gusting 4 13.3
2019-Oct-16 03:55 345 2 gusting 3 13.3
2019-Oct-16 03:46 333 2 gusting 4 13.3
2019-Oct-16 03:37 330 2 gusting 3 13.9
2019-Oct-16 03:28 022 1 gusting 5 14.4
2019-Oct-16 03:19 006 0 gusting 4 14.4
2019-Oct-16 03:10 006 0 gusting 2 14.4
2019-Oct-16 03:01 006 0 gusting 3 14.4
2019-Oct-16 02:52 006 14.4
2019-Oct-16 02:43 006 0 gusting 0 14.4
2019-Oct-16 02:34 006 0 gusting 2 14.4
2019-Oct-16 02:25 006 0 gusting 2 14.4
2019-Oct-16 02:16 006 0 gusting 2 14.4
2019-Oct-16 02:07 006 1 gusting 3 14.4
2019-Oct-16 01:58 006 1 gusting 2 14.4
2019-Oct-16 01:49 006 0 gusting 4 14.4
2019-Oct-16 01:40 346 1 gusting 2 15.0
2019-Oct-16 01:31 350 1 gusting 3 15.0
2019-Oct-16 01:22 353 1 gusting 4 15.0
2019-Oct-16 01:13 344 0 gusting 3 15.0
2019-Oct-16 01:04 345 15.0
2019-Oct-16 00:55 345 15.0
2019-Oct-16 00:46 350 1 gusting 3 15.6
2019-Oct-16 00:37 354 1 gusting 3 15.6
2019-Oct-16 00:28 346 0 gusting 2 15.6
2019-Oct-16 00:19 342 0 gusting 2 15.6
2019-Oct-16 00:10 340 0 gusting 2 15.6
2019-Oct-16 00:01 339 1 gusting 3 15.6
2019-Oct-15 23:52 353 1 gusting 4 16.1
2019-Oct-15 23:43 352 1 gusting 3 16.1
2019-Oct-15 23:34 006 1 gusting 5 16.1
2019-Oct-15 23:25 017 1 gusting 5 16.7
2019-Oct-15 23:16 356 1 gusting 6 16.7
2019-Oct-15 23:07 357 2 gusting 5 16.7
2019-Oct-15 22:58 351 1 gusting 6 16.7
2019-Oct-15 22:49 002 1 gusting 4 16.7
2019-Oct-15 22:40 355 0 gusting 3 16.7
2019-Oct-15 22:31 338 16.7
2019-Oct-15 22:22 337 16.7
2019-Oct-15 22:13 16.7
2019-Oct-15 22:04 337 1 gusting 3 16.7
2019-Oct-15 21:55 338 0 gusting 4 17.2
2019-Oct-15 21:46 347 1 gusting 3 17.2
2019-Oct-15 21:37 340 2 gusting 5 17.2
2019-Oct-15 21:28 345 2 gusting 5 17.8
2019-Oct-15 21:19 325 1 gusting 4 17.8
2019-Oct-15 21:10 358 0 gusting 4 18.3
2019-Oct-15 21:01 286 0 gusting 3 18.3
2019-Oct-15 20:52 243 0 gusting 3 18.3
2019-Oct-15 20:43 233 18.3
2019-Oct-15 20:34 233 0 gusting 2 18.3
2019-Oct-15 20:25 233 0 gusting 2 18.3
2019-Oct-15 20:16 237 1 gusting 3 18.9
2019-Oct-15 20:07 238 1 gusting 3 18.9
2019-Oct-15 19:58 231 2 gusting 4 18.9
2019-Oct-15 19:49 223 2 gusting 5 19.4
2019-Oct-15 19:40 212 1 gusting 5 19.4
2019-Oct-15 19:31 211 2 gusting 3 19.4
2019-Oct-15 19:22 211 1 gusting 4 20.0
2019-Oct-15 19:13 211 0 gusting 3 20.0
2019-Oct-15 19:04 211 0 gusting 3 20.0
2019-Oct-15 18:55 211 0 gusting 2 20.6
2019-Oct-15 18:46 211 0 gusting 2 20.6
2019-Oct-15 18:37 211 0 gusting 2 20.6
2019-Oct-15 18:28 211 1 gusting 3 20.6
2019-Oct-15 18:19 211 1 gusting 3 20.6
2019-Oct-15 18:10 211 1 gusting 3 20.6
2019-Oct-15 18:01 211 1 gusting 3 20.6
2019-Oct-15 17:52 211 2 gusting 4 21.1
2019-Oct-15 17:43 206 2 gusting 4 21.1
2019-Oct-15 17:34 184 1 gusting 6 21.1
2019-Oct-15 17:25 152 0 gusting 3 21.7
2019-Oct-15 17:16 230 21.7
2019-Oct-15 17:07 231 0 gusting 2 21.7
2019-Oct-15 16:58 221 21.7
2019-Oct-15 16:49 065 0 gusting 1 21.7
2019-Oct-15 16:40 061 0 gusting 2 21.7
2019-Oct-15 16:31 083 1 gusting 4 21.7
2019-Oct-15 16:22 060 1 gusting 4 21.7
2019-Oct-15 16:13 075 1 gusting 4 21.7
2019-Oct-15 16:04 065 2 gusting 6 21.7
2019-Oct-15 15:55 049 0 gusting 6 22.2
2019-Oct-15 15:46 061 0 gusting 4 22.2
2019-Oct-15 15:37 059 22.2
2019-Oct-15 15:28 316 22.2
2019-Oct-15 15:19 312 1 gusting 4 22.2
2019-Oct-15 15:10 261 1 gusting 5 21.7
2019-Oct-15 15:01 188 22.2
2019-Oct-15 14:52 141 1 gusting 1 21.7
2019-Oct-15 14:43 090 2 gusting 4 21.1
2019-Oct-15 14:34 092 2 gusting 6 21.1
2019-Oct-15 14:25 100 1 gusting 6 21.1
2019-Oct-15 14:16 124 0 gusting 4 21.1
2019-Oct-15 14:07 054 0 gusting 3 21.1
2019-Oct-15 13:58 112 1 gusting 4 21.1
2019-Oct-15 13:49 183 1 gusting 5 21.1
2019-Oct-15 13:40 309 0 gusting 3 21.1
2019-Oct-15 13:31 112 0 gusting 2 21.1
2019-Oct-15 13:22 143 0 gusting 3 20.6
2019-Oct-15 13:13 140 0 gusting 3 20.6
2019-Oct-15 13:04 063 1 gusting 2 20.0
2019-Oct-15 12:55 025 0 gusting 4 20.0
2019-Oct-15 12:46 221 0 gusting 2 20.6
2019-Oct-15 12:37 169 1 gusting 5 20.0
2019-Oct-15 12:28 151 1 gusting 4 20.0
2019-Oct-15 12:19 130 0 gusting 6 19.4
2019-Oct-15 12:10 179 1 gusting 4 19.4
2019-Oct-15 12:01 081 1 gusting 4 18.9
2019-Oct-15 11:52 108 2 gusting 5 18.9
2019-Oct-15 11:43 075 1 gusting 6 18.9
2019-Oct-15 11:34 017 1 gusting 5 18.9
2019-Oct-15 11:25 047 1 gusting 6 18.9
2019-Oct-15 11:16 082 1 gusting 5 18.3
2019-Oct-15 11:07 087 2 gusting 6 18.3
2019-Oct-15 10:58 104 1 gusting 6 17.8
2019-Oct-15 10:49 080 2 gusting 5 18.3
2019-Oct-15 10:40 092 2 gusting 7 17.8
2019-Oct-15 10:31 086 1 gusting 7 17.8
2019-Oct-15 10:22 049 1 gusting 6 17.8
2019-Oct-15 10:13 057 1 gusting 5 17.2
2019-Oct-15 10:04 054 0 gusting 4 17.2
2019-Oct-15 09:55 086 1 gusting 2 17.2
2019-Oct-15 09:46 097 1 gusting 4 16.7
2019-Oct-15 09:37 097 0 gusting 4 16.7
2019-Oct-15 09:28 346 1 gusting 4 16.1
2019-Oct-15 09:19 298 1 gusting 4 15.6
2019-Oct-15 09:10 302 0 gusting 3 15.6
2019-Oct-15 09:01 009 0 gusting 1 15.6